This demonstration page uses our WeatherBlox Daily Observations layout. Learn more.

Hourly Observations for December 24, 2017

Temp ( °F °C ) Dew Point ( °F °C ) Humidity (%) Winds ( mph kmh ) Pressure ( in mb ) Visibility ( mi km ) Precip ( " mm )
12:15 am 00:15 Cloudy with Light Snow 16 -9 15 -9.6 95 95 N 7 11 30.42 1030 5 8.04672 0 0
12:35 am 00:35 Cloudy with Light Snow 16 -9 15 -9.6 95 95 NNW 7 11 30.45 1031 4 6.437376 0 0
12:55 am 00:55 Cloudy with Light Snow 16 -9 15 -9.6 95 95 NNW 8 13 30.45 1031 2.5 4.02336 0 0
1:15 am 01:15 Cloudy with Light Snow 16 -9 14 -9.8 94 94 NNW 8 13 30.45 1031 7 11.265408 0 0
1:35 am 01:35 Cloudy with Light Snow 16 -9 14 -9.8 94 94 NNW 7 11 30.45 1031 7 11.265408 0 0
1:55 am 01:55 Cloudy with Light Snow 16 -9 15 -9.7 95 95 NNW 9 15 30.45 1031 5 8.04672 0 0
2:15 am 02:15 Cloudy with Light Snow 16 -9 14 -9.8 94 94 NNW 10 17 30.45 1031 5 8.04672 0 0
2:35 am 02:35 Cloudy 16 -9.1 14 -10.1 93 93 NNW 9 15 30.45 1031 10 16.09344 0 0
2:55 am 02:55 Cloudy with Light Snow 15 -9.5 13 -10.7 91 91 NNW 7 11 30.45 1031 10 16.09344 0 0
3:15 am 03:15 Mostly Cloudy 13 -10.7 11 -11.9 91 91 NW 6 9 30.5 1033 10 16.09344 0 0
3:35 am 03:35 Cloudy 11 -11.8 9 -12.8 92 92 NW 7 11 30.5 1033 10 16.09344 0 0
3:55 am 03:55 Mostly Cloudy 9 -12.6 8 -13.6 92 92 NW 6 9 30.48 1032 10 16.09344 0 0
4:15 am 04:15 Partly Cloudy 8 -13.4 7 -14.1 95 95 NW 8 13 30.5 1033 10 16.09344 0 0
4:35 am 04:35 Clear 6 -14.2 5 -15 94 94 NW 8 13 30.5 1033 10 16.09344 0 0
4:55 am 04:55 Clear 5 -15.2 3 -16 94 94 WNW 8 13 30.5 1033 10 16.09344 0 0
5:15 am 05:15 Clear 5 -15.1 3 -16 93 93 WNW 6 9 30.53 1034 10 16.09344 0 0
5:35 am 05:35 Clear 4 -15.8 2 -16.9 91 91 WNW 6 9 30.56 1035 10 16.09344 0 0
5:55 am 05:55 Clear 5 -15 3 -15.9 93 93 W 7 11 30.53 1034 7 11.265408 0 0
6:15 am 06:15 Clear 6 -14.7 4 -15.7 92 92 W 6 9 30.53 1034 10 16.09344 0 0
6:35 am 06:35 Clear 4 -15.4 2 -16.4 92 92 W 7 11 30.56 1035 10 16.09344 0 0
6:55 am 06:55 Clear 2 -16.4 1 -17.5 91 91 WNW 6 9 30.56 1035 7 11.265408 0 0
7:15 am 07:15 Clear 4 -15.7 2 -16.8 91 91 W 3 6 30.56 1035 7 11.265408 0 0
7:35 am 07:35 Clear 4 -15.8 1 -17 91 91 WNW 5 7 30.56 1035 10 16.09344 0 0
7:55 am 07:55 Clear 1 -17 -1 -18.5 88 88 WNW 7 11 30.56 1035 10 16.09344 0 0
8:15 am 08:15 Sunny 1 -17 -1 -18.4 89 89 W 5 7 30.56 1035 10 16.09344 0 0
8:35 am 08:35 Sunny 1 -17 -1 -18.5 88 88 W 6 9 30.56 1035 10 16.09344 0 0
8:55 am 08:55 Sunny 1 -17 -1 -18.4 89 89 W 6 9 30.56 1035 10 16.09344 0 0
9:15 am 09:15 Sunny 2 -16.5 0 -18 88 88 W 8 13 30.59 1036 10 16.09344 0 0
9:35 am 09:35 Sunny 4 -15.8 1 -17.2 89 89 WNW 6 9 30.59 1036 10 16.09344 0 0
9:55 am 09:55 Sunny 4 -15.6 1 -17.1 88 88 NW 7 11 30.59 1036 10 16.09344 0 0
10:15 am 10:15 Sunny 7 -13.9 3 -15.9 85 85 WNW 8 13 30.56 1035 10 16.09344 0 0
10:35 am 10:35 Sunny 8 -13.2 3 -16.3 78 78 WNW 10 17 30.56 1035 10 16.09344 0 0
10:55 am 10:55 Sunny 9 -13 2 -16.5 75 75 WNW 9 15 30.56 1035 10 16.09344 0 0
11:15 am 11:15 Sunny 10 -12.2 3 -16 74 74 W 12 19 30.53 1034 10 16.09344 0 0
11:35 am 11:35 Sunny 12 -11.3 5 -15.1 74 74 W 9 15 30.53 1034 10 16.09344 0 0
11:55 am 11:55 Sunny 13 -10.5 6 -14.5 73 73 W 10 17 30.5 1033 10 16.09344 0 0
12:15 pm 12:15 Sunny 14 -9.9 7 -13.8 73 73 WSW 8 13 30.5 1033 10 16.09344 0 0
12:35 pm 12:35 Sunny 15 -9.3 8 -13.4 72 72 W 14 22 30.48 1032 10 16.09344 0 0
12:55 pm 12:55 Sunny 17 -8.5 8 -13.2 69 69 W 13 20 30.48 1032 7 11.265408 0 0
1:15 pm 13:15 Sunny 17 -8.5 8 -13.3 69 69 W 10 17 30.45 1031 10 16.09344 0 0
1:35 pm 13:35 Sunny 17 -8.3 8 -13.1 69 69 W 13 20 30.45 1031 10 16.09344 0 0
1:55 pm 13:55 Sunny 17 -8.1 9 -13 68 68 WNW 9 15 30.45 1031 7 11.265408 0 0
2:15 pm 14:15 Sunny 18 -8 9 -12.9 68 68 W 12 19 30.45 1031 10 16.09344 0 0
2:35 pm 14:35 Sunny 17 -8.2 9 -13 69 69 W 12 19 30.45 1031 10 16.09344 0 0
2:55 pm 14:55 Sunny 18 -7.6 9 -12.8 67 67 W 13 20 30.45 1031 10 16.09344 0 0
3:15 pm 15:15 Sunny 19 -7.5 9 -12.8 66 66 W 10 17 30.45 1031 10 16.09344 0 0
3:35 pm 15:35 Sunny 19 -7.3 9 -13 64 64 WNW 10 17 30.45 1031 10 16.09344 0 0
3:55 pm 15:55 Sunny 18 -7.8 8 -13.1 66 66 W 10 17 30.45 1031 10 16.09344 0 0
4:15 pm 16:15 Sunny 19 -7.5 9 -13 65 65 W 14 22 30.45 1031 10 16.09344 0 0
4:35 pm 16:35 Sunny 18 -7.6 9 -12.7 67 67 W 14 22 30.45 1031 10 16.09344 0 0
4:55 pm 16:55 Sunny 18 -8 8 -13.2 67 67 W 13 20 30.45 1031 10 16.09344 0 0
5:15 pm 17:15 Sunny 16 -8.7 8 -13.6 68 68 W 13 20 30.45 1031 10 16.09344 0 0
5:35 pm 17:35 Clear 15 -9.5 7 -14 70 70 W 12 19 30.45 1031 10 16.09344 0 0
5:55 pm 17:55 Clear 16 -9 7 -14.1 67 67 W 10 17 30.45 1031 10 16.09344 0 0
6:15 pm 18:15 Clear 15 -9.2 6 -14.5 66 66 WNW 9 15 30.45 1031 10 16.09344 0 0
6:35 pm 18:35 Clear 12 -11 4 -15.3 71 71 W 10 17 30.48 1032 10 16.09344 0 0
6:55 pm 18:55 Clear 13 -10.8 5 -14.9 72 72 W 12 19 30.48 1032 10 16.09344 0 0
7:15 pm 19:15 Clear 13 -10.6 6 -14.7 72 72 W 13 20 30.5 1033 10 16.09344 0 0
7:35 pm 19:35 Clear 12 -11.2 4 -15.3 72 72 W 10 17 30.5 1033 10 16.09344 0 0
7:55 pm 19:55 Clear 12 -11 5 -15.2 71 71 W 12 19 30.5 1033 10 16.09344 0 0
8:15 pm 20:15 Clear 12 -11.1 4 -15.5 70 70 W 12 19 30.5 1033 10 16.09344 0 0
8:35 pm 20:35 Clear 10 -12 3 -16 72 72 W 9 15 30.5 1033 10 16.09344 0 0
8:55 pm 20:55 Clear 10 -12.5 3 -16.1 75 75 W 10 17 30.5 1033 10 16.09344 0 0
9:15 pm 21:15 Clear 10 -12.2 3 -16.2 72 72 W 12 19 30.5 1033 10 16.09344 0 0
9:35 pm 21:35 Clear 11 -11.6 3 -16 70 70 W 13 20 30.5 1033 10 16.09344 0 0
9:55 pm 21:55 Clear 10 -12.1 2 -16.5 70 70 W 12 19 30.5 1033 10 16.09344 0 0
10:15 pm 22:15 Clear 10 -12.3 2 -16.5 71 71 W 10 17 30.5 1033 10 16.09344 0 0
10:35 pm 22:35 Clear 11 -11.7 2 -16.5 68 68 W 10 17 30.5 1033 10 16.09344 0 0
10:55 pm 22:55 Clear 11 -11.9 2 -16.6 68 68 WNW 7 11 30.5 1033 10 16.09344 0 0
11:15 pm 23:15 Clear 11 -11.6 2 -16.6 67 67 W 10 17 30.5 1033 10 16.09344 0 0
11:35 pm 23:35 Clear 10 -12.3 1 -17.1 68 68 WNW 8 13 30.5 1033 10 16.09344 0 0
11:55 pm 23:55 Clear 9 -12.6 1 -17.1 69 69 NW 5 7 30.53 1034 10 16.09344 0 0

Powered by AerisWeather